DAL5195 KRDU-KLGA

Flight info

Callsign DAL5195
Flight time 1h 15m
Altitude 35000
Route BEXGO5 BOUSY GEARS Q87 HURTS PROUD2
Aircraft B738/M-SDE2E3FGHIRWXY/LB1

Departure

Time 2026-05-07 01:08
Airport Raleigh-Durham International Airport (KRDU)

Arrival

Time 2026-05-07 02:23
Airport LaGuardia Airport (KLGA)
Time Latitude Longitude Altitude Speed Heading
2026-05-07 00:48 35.87822 -78.79191 391 ft 0 kts 315°
2026-05-07 00:52 35.87815 -78.79183 391 ft 4 kts 316°
2026-05-07 00:52 35.87810 -78.79177 391 ft 0 kts 324°
2026-05-07 00:56 35.87789 -78.79167 391 ft 4 kts 10°
2026-05-07 00:56 35.87770 -78.79177 391 ft 1 kts 44°
2026-05-07 00:59 35.87805 -78.79136 391 ft 16 kts 44°
2026-05-07 00:59 35.87904 -78.79015 391 ft 19 kts 45°
2026-05-07 01:00 35.87999 -78.79020 391 ft 16 kts 317°
2026-05-07 01:00 35.88055 -78.79089 391 ft 0 kts 314°
2026-05-07 01:00 35.88059 -78.79091 391 ft 5 kts 331°
2026-05-07 01:00 35.88133 -78.79049 391 ft 16 kts 46°
2026-05-07 01:01 35.88220 -78.78942 390 ft 19 kts 45°
2026-05-07 01:01 35.88314 -78.78826 390 ft 19 kts 45°
2026-05-07 01:01 35.88404 -78.78714 390 ft 18 kts 45°
2026-05-07 01:01 35.88491 -78.78607 391 ft 17 kts 45°
2026-05-07 01:02 35.88575 -78.78503 391 ft 17 kts 44°
2026-05-07 01:02 35.88657 -78.78403 391 ft 16 kts 45°
2026-05-07 01:02 35.88733 -78.78309 391 ft 15 kts 45°
2026-05-07 01:02 35.88804 -78.78220 391 ft 14 kts 45°
2026-05-07 01:03 35.88872 -78.78136 391 ft 14 kts 45°
2026-05-07 01:03 35.88937 -78.78055 390 ft 13 kts 45°
2026-05-07 01:03 35.88985 -78.77961 391 ft 13 kts 75°
2026-05-07 01:03 35.89027 -78.77866 391 ft 13 kts 45°
2026-05-07 01:04 35.89088 -78.77791 391 ft 11 kts 45°
2026-05-07 01:04 35.89126 -78.77744 391 ft 4 kts 45°
2026-05-07 01:04 35.89146 -78.77720 391 ft 4 kts 45°
2026-05-07 01:04 35.89166 -78.77696 391 ft 4 kts 45°
2026-05-07 01:05 35.89196 -78.77659 391 ft 9 kts 42°
2026-05-07 01:05 35.89260 -78.77678 391 ft 11 kts 315°
2026-05-07 01:05 35.89299 -78.77726 391 ft 1 kts 315°
2026-05-07 01:05 35.89304 -78.77732 391 ft 0 kts 315°
2026-05-07 01:07 35.89349 -78.77795 392 ft 18 kts 295°
2026-05-07 01:07 35.89308 -78.77898 391 ft 9 kts 224°
2026-05-07 01:07 35.89099 -78.78157 389 ft 85 kts 225°
2026-05-07 01:08 35.88487 -78.78906 397 ft 160 kts 223°
2026-05-07 01:08 35.87620 -78.80011 843 ft 194 kts 227°
2026-05-07 01:08 35.86695 -78.81294 1626 ft 205 kts 229°
2026-05-07 01:08 35.85815 -78.82684 2526 ft 204 kts 235°
2026-05-07 01:09 35.84969 -78.84094 3458 ft 206 kts 232°
2026-05-07 01:09 35.84080 -78.85515 4183 ft 218 kts 246°
2026-05-07 01:09 35.83991 -78.87333 5182 ft 222 kts 284°
2026-05-07 01:09 35.84807 -78.89061 5767 ft 247 kts 307°
2026-05-07 01:10 35.86024 -78.90612 6574 ft 255 kts 310°
2026-05-07 01:10 35.87293 -78.92155 7440 ft 259 kts 310°
2026-05-07 01:10 35.88594 -78.93726 8304 ft 264 kts 310°
2026-05-07 01:10 35.89921 -78.95318 9187 ft 268 kts 310°
2026-05-07 01:11 35.91275 -78.96933 10047 ft 273 kts 310°
2026-05-07 01:11 35.92677 -78.98604 10520 ft 292 kts 310°
2026-05-07 01:11 35.94195 -79.00436 10704 ft 318 kts 310°
2026-05-07 01:11 35.95821 -79.02413 11083 ft 335 kts 310°
2026-05-07 01:12 35.97469 -79.04424 11685 ft 339 kts 311°
2026-05-07 01:12 35.99155 -79.06480 11922 ft 340 kts 310°
2026-05-07 01:12 36.00842 -79.08514 11959 ft 339 kts 313°
2026-05-07 01:12 36.02853 -79.10128 11976 ft 355 kts 332°
2026-05-07 01:13 36.05304 -79.10763 11962 ft 369 kts 353°
2026-05-07 01:13 36.07875 -79.10284 11968 ft 382 kts 14°
2026-05-07 01:13 36.10240 -79.08707 11975 ft 393 kts 34°
2026-05-07 01:13 36.12138 -79.06250 11986 ft 398 kts 49°
2026-05-07 01:14 36.13787 -79.03490 11967 ft 399 kts 52°
2026-05-07 01:14 36.15365 -79.00723 11968 ft 398 kts 52°
2026-05-07 01:14 36.16947 -78.97923 11968 ft 397 kts 52°
2026-05-07 01:14 36.18439 -78.95026 12203 ft 403 kts 63°
2026-05-07 01:15 36.19216 -78.91682 12992 ft 407 kts 84°
2026-05-07 01:15 36.19100 -78.88195 13862 ft 406 kts 101°
2026-05-07 01:15 36.18499 -78.84762 14477 ft 412 kts 105°
2026-05-07 01:15 36.17792 -78.81293 15024 ft 419 kts 106°
2026-05-07 01:16 36.17052 -78.77776 15593 ft 426 kts 106°
2026-05-07 01:16 36.16294 -78.74210 16183 ft 431 kts 107°
2026-05-07 01:16 36.15523 -78.70603 16766 ft 437 kts 107°
2026-05-07 01:16 36.14738 -78.66947 17329 ft 442 kts 106°
2026-05-07 01:17 36.13937 -78.63255 17954 ft 447 kts 106°
2026-05-07 01:17 36.13120 -78.59518 18474 ft 453 kts 106°
2026-05-07 01:17 36.12290 -78.55742 19019 ft 457 kts 107°
2026-05-07 01:17 36.11455 -78.51948 19589 ft 459 kts 107°
2026-05-07 01:18 36.10614 -78.48120 20152 ft 462 kts 107°
2026-05-07 01:18 36.09769 -78.44270 20682 ft 466 kts 107°
2026-05-07 01:18 36.08929 -78.40437 21199 ft 470 kts 107°
2026-05-07 01:18 36.08173 -78.36497 21698 ft 475 kts 98°
2026-05-07 01:19 36.08171 -78.32408 22170 ft 478 kts 79°
2026-05-07 01:19 36.09079 -78.28481 22677 ft 475 kts 62°
2026-05-07 01:19 36.10809 -78.25053 23167 ft 468 kts 44°
2026-05-07 01:19 36.13150 -78.22323 23619 ft 460 kts 29°
2026-05-07 01:20 36.15917 -78.20451 23977 ft 450 kts 15°
2026-05-07 01:20 36.18850 -78.19072 24331 ft 453 kts 12°
2026-05-07 01:20 36.21830 -78.17759 24658 ft 456 kts 12°
2026-05-07 01:20 36.24836 -78.16449 25051 ft 459 kts 12°
2026-05-07 01:21 36.27810 -78.15137 25438 ft 462 kts 12°
2026-05-07 01:21 36.30838 -78.13777 25813 ft 464 kts 12°
2026-05-07 01:21 36.33881 -78.12390 26173 ft 468 kts 13°
2026-05-07 01:21 36.36944 -78.10980 26514 ft 471 kts 13°
2026-05-07 01:22 36.40025 -78.09555 26875 ft 474 kts 13°
2026-05-07 01:22 36.43131 -78.08115 27156 ft 478 kts 13°
2026-05-07 01:22 36.46260 -78.06663 27477 ft 481 kts 13°
2026-05-07 01:22 36.49366 -78.05220 27824 ft 484 kts 13°
2026-05-07 01:23 36.52561 -78.03736 28162 ft 486 kts 13°
2026-05-07 01:23 36.55688 -78.02283 28470 ft 489 kts 13°
2026-05-07 01:23 36.58890 -78.00794 28837 ft 491 kts 13°
2026-05-07 01:23 36.62100 -77.99301 29134 ft 494 kts 13°
2026-05-07 01:24 36.65337 -77.97794 29356 ft 500 kts 13°
2026-05-07 01:24 36.68610 -77.96268 29556 ft 504 kts 13°
2026-05-07 01:24 36.71891 -77.94734 29988 ft 503 kts 14°
2026-05-07 01:25 36.78419 -77.91494 30076 ft 511 kts 21°
2026-05-07 01:25 36.81387 -77.89115 30073 ft 516 kts 32°
2026-05-07 01:25 36.84051 -77.86092 30062 ft 522 kts 43°
2026-05-07 01:26 36.88386 -77.78703 30062 ft 531 kts 53°
2026-05-07 01:26 36.92514 -77.71004 30051 ft 535 kts 53°
2026-05-07 01:27 36.96739 -77.63298 30379 ft 539 kts 51°
2026-05-07 01:27 36.98877 -77.59445 30748 ft 538 kts 51°
2026-05-07 01:27 37.01010 -77.55611 31199 ft 535 kts 50°
2026-05-07 01:27 37.03099 -77.51848 31620 ft 533 kts 50°
2026-05-07 01:28 37.05211 -77.48037 31986 ft 534 kts 49°
2026-05-07 01:28 37.07335 -77.44201 32093 ft 540 kts 49°
2026-05-07 01:28 37.09494 -77.40327 32248 ft 543 kts 47°
2026-05-07 01:28 37.11891 -77.36724 32584 ft 532 kts 37°
2026-05-07 01:29 37.14525 -77.33523 33063 ft 525 kts 34°
2026-05-07 01:29 37.17179 -77.30410 33540 ft 521 kts 32°
2026-05-07 01:29 37.19831 -77.27316 33901 ft 520 kts 32°
2026-05-07 01:29 37.22471 -77.24210 34241 ft 519 kts 32°
2026-05-07 01:30 37.25087 -77.21093 34619 ft 517 kts 33°
2026-05-07 01:30 37.27641 -77.18021 34929 ft 517 kts 32°
2026-05-07 01:30 37.30246 -77.14877 34903 ft 522 kts 33°
2026-05-07 01:31 37.35473 -77.08536 34913 ft 521 kts 33°
2026-05-07 01:31 37.40640 -77.02255 34905 ft 514 kts 33°
2026-05-07 01:32 37.45802 -76.96030 34909 ft 510 kts 29°
2026-05-07 01:32 37.48647 -76.93588 34917 ft 486 kts 14°
2026-05-07 01:32 37.51663 -76.91646 34922 ft 489 kts 13°
2026-05-07 01:33 37.57741 -76.87765 34911 ft 498 kts 15°
2026-05-07 01:33 37.63746 -76.83255 34918 ft 505 kts 20°
2026-05-07 01:34 37.69671 -76.78479 34917 ft 505 kts 20°
2026-05-07 01:34 37.75592 -76.73743 34904 ft 502 kts 19°
2026-05-07 01:35 37.81504 -76.69085 34890 ft 499 kts 19°
2026-05-07 01:35 37.87355 -76.64497 34890 ft 497 kts 19°
2026-05-07 01:36 37.93226 -76.59888 34896 ft 496 kts 19°
2026-05-07 01:36 37.99092 -76.55271 34891 ft 496 kts 19°
2026-05-07 01:37 38.04950 -76.50648 34889 ft 496 kts 19°
2026-05-07 01:37 38.10809 -76.46013 34928 ft 496 kts 19°
2026-05-07 01:38 38.16679 -76.41363 34896 ft 498 kts 20°
2026-05-07 01:38 38.22526 -76.36721 34889 ft 499 kts 20°
2026-05-07 01:39 38.28426 -76.32028 34893 ft 501 kts 20°
2026-05-07 01:39 38.34338 -76.27315 34898 ft 503 kts 20°
2026-05-07 01:40 38.40271 -76.22576 34895 ft 504 kts 20°
2026-05-07 01:40 38.46209 -76.17824 34897 ft 505 kts 20°
2026-05-07 01:41 38.52125 -76.13080 34883 ft 505 kts 20°
2026-05-07 01:41 38.55120 -76.10678 34481 ft 511 kts 20°
2026-05-07 01:41 38.58128 -76.08263 33884 ft 511 kts 20°
2026-05-07 01:41 38.61140 -76.05837 33179 ft 511 kts 21°
2026-05-07 01:42 38.64146 -76.03414 32482 ft 512 kts 21°
2026-05-07 01:42 38.67159 -76.00983 31780 ft 513 kts 22°
2026-05-07 01:42 38.70177 -75.98546 31145 ft 512 kts 22°
2026-05-07 01:42 38.73177 -75.96117 30693 ft 509 kts 22°
2026-05-07 01:43 38.76161 -75.93700 30126 ft 507 kts 22°
2026-05-07 01:43 38.79133 -75.91293 29548 ft 504 kts 22°
2026-05-07 01:43 38.82047 -75.88930 29000 ft 500 kts 22°
2026-05-07 01:43 38.84974 -75.86554 28463 ft 495 kts 22°
2026-05-07 01:44 38.87871 -75.84203 27947 ft 491 kts 22°
2026-05-07 01:44 38.90738 -75.81873 27447 ft 486 kts 22°
2026-05-07 01:44 38.93584 -75.79559 27036 ft 481 kts 21°
2026-05-07 01:44 38.96367 -75.77178 26904 ft 481 kts 25°
2026-05-07 01:45 38.99041 -75.74678 26866 ft 469 kts 26°
2026-05-07 01:45 39.01603 -75.72188 26849 ft 454 kts 26°
2026-05-07 01:45 39.04078 -75.69771 26854 ft 439 kts 26°
2026-05-07 01:45 39.06477 -75.67448 26846 ft 425 kts 25°
2026-05-07 01:46 39.08779 -75.65242 26849 ft 411 kts 24°
2026-05-07 01:46 39.11041 -75.63089 26846 ft 398 kts 24°
2026-05-07 01:46 39.13236 -75.61007 26851 ft 385 kts 23°
2026-05-07 01:46 39.15360 -75.58994 26871 ft 373 kts 22°
2026-05-07 01:47 39.17421 -75.57042 26856 ft 362 kts 22°
2026-05-07 01:47 39.19421 -75.55144 26849 ft 353 kts 21°
2026-05-07 01:47 39.21413 -75.53261 26878 ft 359 kts 21°
2026-05-07 01:47 39.23464 -75.51328 26904 ft 370 kts 22°
2026-05-07 01:48 39.25580 -75.49402 26880 ft 373 kts 20°
2026-05-07 01:48 39.27718 -75.47513 26871 ft 371 kts 20°
2026-05-07 01:48 39.29847 -75.45642 26858 ft 369 kts 20°
2026-05-07 01:48 39.31965 -75.43778 26859 ft 368 kts 20°
2026-05-07 01:49 39.34072 -75.41917 26881 ft 366 kts 19°
2026-05-07 01:49 39.36143 -75.40084 26874 ft 365 kts 19°
2026-05-07 01:49 39.38235 -75.38227 26862 ft 364 kts 19°
2026-05-07 01:49 39.40322 -75.36371 26863 ft 364 kts 20°
2026-05-07 01:50 39.42406 -75.34516 26874 ft 364 kts 20°
2026-05-07 01:50 39.44489 -75.32660 26877 ft 364 kts 20°
2026-05-07 01:50 39.46577 -75.30800 26873 ft 365 kts 20°
2026-05-07 01:50 39.48669 -75.28934 26877 ft 366 kts 20°
2026-05-07 01:51 39.50764 -75.27063 26879 ft 367 kts 20°
2026-05-07 01:51 39.52827 -75.25170 26880 ft 370 kts 21°
2026-05-07 01:51 39.54923 -75.23206 26887 ft 373 kts 21°
2026-05-07 01:51 39.57028 -75.21221 26875 ft 375 kts 21°
2026-05-07 01:52 39.59136 -75.19232 26880 ft 375 kts 21°
2026-05-07 01:52 39.61250 -75.17241 26871 ft 376 kts 21°
2026-05-07 01:52 39.63372 -75.15247 26870 ft 376 kts 21°
2026-05-07 01:52 39.65491 -75.13255 26870 ft 376 kts 21°
2026-05-07 01:53 39.67611 -75.11262 26871 ft 376 kts 21°
2026-05-07 01:53 39.69715 -75.09363 26865 ft 372 kts 19°
2026-05-07 01:53 39.71868 -75.07521 26867 ft 370 kts 18°
2026-05-07 01:53 39.74022 -75.05701 26845 ft 369 kts 18°
2026-05-07 01:54 39.76165 -75.03882 26866 ft 367 kts 18°
2026-05-07 01:54 39.78297 -75.02059 26870 ft 367 kts 18°
2026-05-07 01:54 39.80420 -75.00235 26866 ft 366 kts 18°
2026-05-07 01:54 39.82544 -74.98403 26870 ft 365 kts 19°
2026-05-07 01:55 39.84657 -74.96577 26873 ft 365 kts 19°
2026-05-07 01:55 39.86733 -74.94737 26877 ft 366 kts 20°
2026-05-07 01:55 39.88822 -74.92837 26879 ft 367 kts 20°
2026-05-07 01:55 39.90912 -74.90931 26880 ft 366 kts 20°
2026-05-07 01:56 39.92964 -74.88912 26904 ft 380 kts 30°
2026-05-07 01:56 39.94807 -74.86369 26896 ft 389 kts 37°
2026-05-07 01:56 39.96578 -74.83691 26887 ft 390 kts 37°
2026-05-07 01:56 39.98357 -74.81021 26882 ft 389 kts 37°
2026-05-07 01:57 40.00155 -74.78395 26868 ft 386 kts 36°
2026-05-07 01:57 40.01964 -74.75798 26439 ft 391 kts 36°
2026-05-07 01:57 40.03837 -74.73139 25603 ft 407 kts 37°
2026-05-07 01:57 40.05782 -74.70375 24500 ft 432 kts 38°
2026-05-07 01:58 40.07840 -74.67419 23837 ft 442 kts 39°
2026-05-07 01:58 40.09873 -74.64465 23724 ft 432 kts 39°
2026-05-07 01:58 40.11864 -74.61574 23526 ft 425 kts 39°
2026-05-07 01:58 40.13879 -74.58679 22617 ft 437 kts 39°
2026-05-07 01:59 40.15963 -74.55695 21488 ft 453 kts 41°
2026-05-07 01:59 40.18091 -74.52629 20767 ft 456 kts 42°
2026-05-07 01:59 40.20255 -74.49504 19630 ft 469 kts 43°
2026-05-07 01:59 40.22551 -74.46431 18584 ft 475 kts 40°
2026-05-07 02:00 40.24969 -74.43449 17468 ft 480 kts 39°
2026-05-07 02:00 40.27415 -74.40440 16466 ft 482 kts 40°
2026-05-07 02:00 40.29797 -74.37452 16273 ft 465 kts 40°
2026-05-07 02:00 40.32074 -74.34563 16147 ft 446 kts 40°
2026-05-07 02:01 40.34259 -74.31786 16039 ft 430 kts 40°
2026-05-07 02:01 40.36344 -74.29140 15946 ft 415 kts 40°
2026-05-07 02:01 40.38382 -74.26554 15845 ft 401 kts 40°
2026-05-07 02:01 40.40358 -74.24045 15742 ft 389 kts 40°
2026-05-07 02:02 40.42268 -74.21617 15675 ft 377 kts 39°
2026-05-07 02:02 40.44122 -74.19259 15600 ft 366 kts 39°
2026-05-07 02:02 40.45920 -74.16969 15527 ft 355 kts 39°
2026-05-07 02:02 40.47678 -74.14733 15359 ft 349 kts 39°
2026-05-07 02:03 40.49422 -74.12513 15028 ft 349 kts 39°
2026-05-07 02:03 40.51159 -74.10282 14694 ft 346 kts 33°
2026-05-07 02:03 40.53097 -74.08461 14408 ft 341 kts 27°
2026-05-07 02:03 40.55029 -74.06729 14129 ft 340 kts 27°
2026-05-07 02:04 40.56932 -74.04880 13823 ft 344 kts 39°
2026-05-07 02:04 40.58333 -74.02297 13487 ft 351 kts 64°
2026-05-07 02:04 40.59468 -73.99483 13184 ft 346 kts 49°
2026-05-07 02:04 40.61205 -73.97420 12922 ft 331 kts 23°
2026-05-07 02:05 40.63297 -73.96445 12606 ft 311 kts 357°
2026-05-07 02:05 40.65415 -73.96363 12314 ft 301 kts 349°
2026-05-07 02:05 40.67507 -73.96452 11973 ft 301 kts 348°
2026-05-07 02:05 40.69595 -73.96567 11685 ft 299 kts 348°
2026-05-07 02:06 40.71640 -73.96685 11422 ft 297 kts 347°
2026-05-07 02:06 40.73703 -73.96804 11124 ft 296 kts 347°
2026-05-07 02:06 40.75758 -73.96923 10844 ft 295 kts 347°
2026-05-07 02:06 40.77822 -73.97048 10237 ft 305 kts 347°
2026-05-07 02:07 40.79987 -73.97209 9523 ft 318 kts 347°
2026-05-07 02:07 40.84528 -73.97683 7979 ft 334 kts 345°
2026-05-07 02:07 40.86860 -73.98016 7283 ft 341 kts 347°
2026-05-07 02:08 40.89247 -73.98313 6564 ft 348 kts 347°
2026-05-07 02:08 40.91644 -73.98623 5837 ft 352 kts 348°
2026-05-07 02:08 40.94084 -73.98976 5097 ft 354 kts 348°
2026-05-07 02:08 40.96576 -73.99023 4279 ft 365 kts
2026-05-07 02:09 40.98997 -73.97935 3597 ft 373 kts 26°
2026-05-07 02:09 41.00950 -73.95743 3347 ft 365 kts 49°
2026-05-07 02:09 41.02136 -73.92858 3208 ft 353 kts 71°
2026-05-07 02:09 41.02427 -73.89701 3043 ft 341 kts 94°
2026-05-07 02:10 41.01960 -73.86687 2921 ft 328 kts 106°
2026-05-07 02:10 41.01319 -73.83838 2756 ft 319 kts 108°
2026-05-07 02:10 41.00666 -73.81079 2596 ft 310 kts 108°
2026-05-07 02:10 41.00028 -73.78393 2447 ft 302 kts 108°
2026-05-07 02:11 40.99261 -73.75890 2252 ft 293 kts 124°
2026-05-07 02:11 40.97857 -73.74054 2121 ft 279 kts 153°
2026-05-07 02:11 40.96081 -73.73249 2031 ft 265 kts 174°
2026-05-07 02:11 40.94304 -73.72888 2025 ft 254 kts 176°
2026-05-07 02:12 40.92566 -73.72590 2018 ft 250 kts 177°
2026-05-07 02:12 40.90832 -73.72303 2004 ft 252 kts 180°
2026-05-07 02:12 40.89137 -73.72630 1990 ft 243 kts 207°
2026-05-07 02:12 40.87612 -73.73585 1998 ft 244 kts 211°
2026-05-07 02:13 40.86122 -73.74594 2008 ft 244 kts 212°
2026-05-07 02:13 40.84612 -73.75623 1987 ft 244 kts 212°
2026-05-07 02:13 40.83276 -73.76921 2121 ft 239 kts 228°
2026-05-07 02:13 40.82089 -73.78410 2743 ft 235 kts 227°
2026-05-07 02:14 40.80906 -73.79880 2987 ft 234 kts 227°
2026-05-07 02:14 40.79762 -73.81314 2989 ft 235 kts 230°
2026-05-07 02:14 40.78971 -73.83115 2988 ft 226 kts 258°
2026-05-07 02:14 40.79056 -73.85156 2998 ft 227 kts 288°
2026-05-07 02:15 40.79763 -73.87029 2999 ft 229 kts 296°
2026-05-07 02:15 40.80556 -73.88862 2998 ft 230 kts 297°
2026-05-07 02:15 40.81408 -73.90590 2978 ft 220 kts 310°
2026-05-07 02:15 40.82716 -73.91555 2986 ft 219 kts 341°
2026-05-07 02:16 40.84236 -73.91854 3015 ft 222 kts 347°
2026-05-07 02:16 40.85736 -73.92082 3013 ft 218 kts 347°
2026-05-07 02:16 40.87227 -73.92307 3008 ft 215 kts 348°
2026-05-07 02:16 40.88729 -73.92047 2997 ft 225 kts 18°
2026-05-07 02:17 40.90099 -73.91018 2806 ft 226 kts 26°
2026-05-07 02:17 40.91426 -73.89907 2502 ft 222 kts 27°
2026-05-07 02:17 40.92723 -73.88803 2111 ft 224 kts 27°
2026-05-07 02:17 40.94033 -73.87695 2036 ft 224 kts 28°
2026-05-07 02:18 40.95118 -73.86200 1974 ft 231 kts 59°
2026-05-07 02:18 40.95434 -73.84130 2000 ft 236 kts 95°
2026-05-07 02:18 40.95072 -73.82026 2013 ft 240 kts 106°
2026-05-07 02:18 40.94601 -73.79920 1994 ft 237 kts 107°
2026-05-07 02:19 40.94110 -73.78038 1993 ft 236 kts 119°
2026-05-07 02:19 40.92975 -73.76577 1992 ft 226 kts 161°
2026-05-07 02:19 40.91495 -73.76446 1999 ft 209 kts 204°
2026-05-07 02:19 40.90262 -73.77395 2006 ft 208 kts 220°
2026-05-07 02:20 40.89024 -73.78428 2004 ft 209 kts 216°
2026-05-07 02:20 40.87843 -73.79385 1966 ft 188 kts 218°
2026-05-07 02:20 40.86798 -73.80245 1890 ft 169 kts 218°
2026-05-07 02:20 40.85824 -73.81051 1683 ft 162 kts 218°
2026-05-07 02:21 40.84901 -73.81814 1467 ft 151 kts 219°
2026-05-07 02:21 40.84034 -73.82533 1282 ft 147 kts 219°
2026-05-07 02:21 40.83166 -73.83250 1121 ft 145 kts 217°
2026-05-07 02:21 40.82341 -73.83930 908 ft 137 kts 216°
2026-05-07 02:22 40.81509 -73.84616 741 ft 146 kts 216°
2026-05-07 02:22 40.80658 -73.85320 532 ft 142 kts 216°
2026-05-07 02:22 40.79812 -73.86038 346 ft 148 kts 217°
2026-05-07 02:22 40.78933 -73.86746 197 ft 150 kts 213°
2026-05-07 02:23 40.78077 -73.87452 40 ft 134 kts 217°
2026-05-07 02:23 40.77377 -73.88014 21 ft 97 kts 198°
2026-05-07 02:23 40.77064 -73.88345 26 ft 14 kts 259°
2026-05-07 02:23 40.77075 -73.88389 26 ft 0 kts 307°
2026-05-07 02:24 40.77092 -73.88401 23 ft 8 kts 336°
2026-05-07 02:24 40.77125 -73.88397 21 ft 6 kts 27°
2026-05-07 02:24 40.77163 -73.88375 20 ft 4 kts
2026-05-07 02:24 40.77186 -73.88398 19 ft 7 kts 318°
2026-05-07 02:25 40.77243 -73.88433 19 ft 9 kts 350°
2026-05-07 02:25 40.77301 -73.88443 18 ft 5 kts 16°
2026-05-07 02:25 40.77316 -73.88436 18 ft 0 kts 21°
2026-05-07 02:25 40.77320 -73.88434 18 ft 1 kts 22°
2026-05-07 02:26 40.77326 -73.88430 18 ft 1 kts 23°
2026-05-07 02:26 40.77327 -73.88429 18 ft 0 kts 23°